Location: Unspecified
(0.0000°N, 0.0000°E)
Time: 12:49:41
(UTC+00:00)

deb Explorer IX - Pass Details

Date: 24 October 2017
Orbit: 541 x 1122 km, 38.8° (Epoch: 22 November)

Event Time Altitude Azimuth Distance (km) Brightness Sun altitude
Exits shadow 04:12:16 30° 197° (SSW) 981 ? -22.5°
Drops below altitude 10° 04:15:12 10° 156° (SSE) 1,816 ? -21.8°
Sets 04:17:39 0° 146° (SE) 2,748 ? -21.2°
